Weather reports worldwide

Advertisment
Landivisiau, France (7106): temperature & dewpoint: 11.08.2018 22:00:00 - 17.08.2018 22:00:00 (CEST)Landivisiau, France (7106): temperature 5cm: 11.08.2018 22:00:00 - 17.08.2018 22:00:00 (CEST)Landivisiau, France (7106): temperature -20cm: 11.08.2018 22:00:00 - 17.08.2018 22:00:00 (CEST)Landivisiau, France (7106): wind speed & gusts: 11.08.2018 22:00:00 - 17.08.2018 22:00:00 (CEST)Landivisiau, France (7106): wind direction: 11.08.2018 22:00:00 - 17.08.2018 22:00:00 (CEST)Landivisiau, France (7106): reduced air pressure: 11.08.2018 22:00:00 - 17.08.2018 22:00:00 (CEST)Landivisiau, France (7106): visibility: 11.08.2018 22:00:00 - 17.08.2018 22:00:00 (CEST)Landivisiau, France (7106): precipitation: 11.08.2018 22:00:00 - 17.08.2018 22:00:00 (CEST)
Date & Time tt [°C] td [°C] tt 5cm [°C] tt -20cm [°C] ff [km/h] ff [kn] fx [km/h] fx [kn] dd ppp [hPa] vv [km] rr [mm]
17.08.2018 22:00:00 15,1 11,1 13,6 18,4 5 3 11 6 W 1025,3 20 0,0
17.08.2018 21:00:00 16,0 11,0 15,4 18,4 8 4 21 11 WNW 1024,9 25 0,0
17.08.2018 20:00:00 16,8 11,1 16,8 18,3 16 9 22 12 NW 1024,4 32 0,0
17.08.2018 19:00:00 17,5 9,6 18,3 18,2 14 8 28 15 WNW 1024,3 28 0,0
17.08.2018 18:00:00 19,0 10,8 19,9 18,0 15 8 26 14 NW 1023,9 48 0,0
17.08.2018 17:00:00 18,9 10,2 19,8 17,9 12 7 31 17 NW 1024,4 27 0,0
17.08.2018 16:00:00 18,1 10,5 19,9 17,8 16 9 28 15 NW 1024,7 20 0,0
17.08.2018 15:00:00 19,4 10,7 21,0 17,6 19 10 28 15 NNW 1024,7 20 0,0
17.08.2018 14:00:00 18,7 9,5 21,1 17,5 16 8 28 15 NW 1024,6 20 0,0
17.08.2018 13:00:00 17,7 10,3 18,6 17,4 18 10 29 16 NW 1024,7 25 0,0
17.08.2018 12:00:00 17,7 10,8 18,0 17,4 13 7 24 13 NW 1024,6 28 0,0
17.08.2018 11:00:00 16,7 11,6 17,2 17,4 10 6 18 10 NW 1024,3 31 0,0
17.08.2018 10:00:00 15,3 12,6 14,5 17,4 7 4 13 7 WNW 1023,7 21 0,0
17.08.2018 09:00:00 13,8 12,5 13,6 17,5 5 3 15 8 W 1023,2 16 0,0
17.08.2018 08:00:00 12,6 11,8 10,7 17,6 8 4 11 6 WSW 1022,7 13 0,0
17.08.2018 07:00:00 12,4 11,5 9,9 17,7 6 3 9 5 W 1022,2 9 0,0
17.08.2018 06:00:00 12,3 11,2 11,2 17,9 8 4 11 6 W 1021,8 6 0,0
17.08.2018 05:00:00 12,4 11,3 11,3 18,0 9 5 11 6 W 1021,7 1,0 0,0
17.08.2018 04:00:00 12,2 11,3 11,2 18,1 9 5 11 6 W 1021,6 8 0,2
17.08.2018 03:00:00 12,3 11,2 11,2 18,2 9 5 11 6 W 1021,4 9 0,0
17.08.2018 02:00:00 12,1 10,8 11,3 18,3 8 4 9 5 W 1021,4 16 0,0
17.08.2018 01:00:00 12,4 11,1 11,7 18,4 8 4 9 5 W 1021,4 19 0,0
17.08.2018 00:00:00 12,5 11,2 11,6 18,5 6 3 11 6 WNW 1020,9 19 0,0
16.08.2018 23:00:00 13,2 11,6 11,7 18,6 8 5 13 7 WNW 1020,4 25 0,0
16.08.2018 22:00:00 13,3 11,4 11,4 18,6 6 4 16 9 NW 1019,8 29 0,0
16.08.2018 21:00:00 15,8 11,6 15,6 18,6 12 7 26 14 NW 1019,1 33 0,0
16.08.2018 20:00:00 15,9 10,9 15,7 18,6 16 9 31 17 NW 1018,8 40 0,0
16.08.2018 19:00:00 17,2 9,4 18,1 18,5 18 10 37 20 NW 1018,5 15 0,0
16.08.2018 18:00:00 18,4 10,0 21,8 18,5 19 10 31 17 NW 1017,9 33 0,0
16.08.2018 17:00:00 18,0 9,9 18,6 18,4 19 10 31 17 NW 1017,9 23 0,0
16.08.2018 16:00:00 17,4 12,3 16,3 18,4 16 9 28 15 NW 1017,7 20 0,0
16.08.2018 15:00:00 16,4 14,1 16,1 18,4 15 8 22 12 NW 1017,6 17 0,0
16.08.2018 14:00:00 15,6 14,6 15,3 18,4 10 5 18 10 NW 1017,4 17 0,0
16.08.2018 13:00:00 15,4 14,3 15,2 18,4 14 8 41 22 NW 1017,3 8 0,2
16.08.2018 12:00:00 18,0 16,7 16,6 18,4 13 7 28 15 WNW 1016,7 27 0,8
16.08.2018 11:00:00 16,8 16,3 16,4 18,4 19 11 29 16 SW 1016,6 2,1 0,4
16.08.2018 10:00:00 16,5 15,7 16,4 18,5 22 12 35 19 SW 1016,6 3,3 0,0
16.08.2018 09:00:00 17,1 16,1 16,4 18,5 21 12 29 16 WSW 1016,3 20 0,0
16.08.2018 08:00:00 16,5 16,0 16,1 18,5 16 8 26 14 SW 1016,5 16 0,0
16.08.2018 07:00:00 16,3 15,8 15,9 18,6 18 10 24 13 SW 1016,7 15 0,0
16.08.2018 06:00:00 16,1 15,8 15,6 18,7 13 7 18 10 SSW 1016,7 19 0,0
16.08.2018 05:00:00 16,1 15,8 15,9 18,7 17 9 22 12 SSW 1017,2 14 0,0
16.08.2018 04:00:00 16,1 15,6 15,8 18,7 16 9 22 12 SSW 1017,8 20 0,2
16.08.2018 03:00:00 16,3 15,7 16,0 18,8 12 7 24 13 SW 1018,5 3,2 0,2
16.08.2018 02:00:00 16,5 15,4 16,2 18,9 16 9 24 13 SSW 1019,0 13 0,0
16.08.2018 01:00:00 16,7 15,2 16,3 18,9 16 9 22 12 SSW 1019,2 14 0,0
16.08.2018 00:00:00 17,1 15,1 16,9 18,9 14 8 21 11 SW 1019,4 19 0,0
15.08.2018 23:00:00 17,3 15,3 17,2 18,9 13 7 22 12 SW 1020,0 33 0,0
15.08.2018 22:00:00 17,5 15,8 17,3 19,0 16 8 22 12 SW 1020,1 25 0,0
15.08.2018 21:00:00 17,7 15,7 17,5 19,0 16 9 22 12 SW 1020,0 20 0,0
15.08.2018 20:00:00 18,4 15,6 18,7 18,9 16 9 22 12 WSW 1019,9 34 0,0
15.08.2018 19:00:00 19,2 15,3 19,8 18,9 17 9 24 13 WSW 1020,1 42 0,0
15.08.2018 18:00:00 19,6 16,1 20,5 18,8 17 9 26 14 SW 1020,5 30 0,0
15.08.2018 17:00:00 19,3 16,0 20,5 18,8 18 10 31 17 SW 1020,9 32 0,0
15.08.2018 16:00:00 19,5 16,2 20,9 18,7 20 11 31 17 WSW 1021,3 25 0,0
15.08.2018 15:00:00 19,3 16,0 18,9 18,7 20 11 28 15 SW 1021,8 24 0,0
15.08.2018 14:00:00 18,7 16,5 18,3 18,6 19 11 31 17 WSW 1021,9 16 0,0
15.08.2018 13:00:00 18,0 17,0 17,7 18,6 20 11 29 16 SW 1022,2 3,8 0,6
15.08.2018 12:00:00 17,7 16,6 17,8 18,6 15 8 26 14 W 1022,3 6 0,0
15.08.2018 11:00:00 17,5 16,9 17,3 18,6 15 8 22 12 WSW 1022,4 4,8 0,2
15.08.2018 10:00:00 17,3 16,7 17,4 18,6 19 11 28 15 WSW 1022,2 3,7 0,0
15.08.2018 09:00:00 16,9 16,6 16,6 18,7 13 7 22 12 SW 1022,0 9 0,0
15.08.2018 08:00:00 16,7 16,4 16,4 18,7 10 6 16 9 SW 1022,1 4,2 0,2
15.08.2018 07:00:00 16,7 16,2 16,3 18,8 10 5 18 10 WSW 1021,9 6 0,0
15.08.2018 06:00:00 16,7 16,2 16,4 18,8 12 7 16 9 SW 1022,1 8 0,0
15.08.2018 05:00:00 16,6 16,0 16,3 18,8 9 5 16 9 SW 1022,3 7 0,0
15.08.2018 04:00:00 16,7 15,7 16,6 18,9 12 6 18 10 SW 1022,3 12 0,0
15.08.2018 03:00:00 16,7 15,7 16,4 18,9 13 7 18 10 SW 1022,7 12 0,0
15.08.2018 02:00:00 16,7 15,6 16,5 19,0 9 5 11 6 SW 1023,1 14 0,0
15.08.2018 01:00:00 16,7 15,6 16,5 19,0 8 4 11 6 SW 1023,1 14 0,0
15.08.2018 00:00:00 16,7 15,4 16,5 19,1 8 4 9 5 SW 1023,3 16 0,0
14.08.2018 23:00:00 16,7 15,7 16,1 19,1 4 2 13 7 WNW 1023,4 13 0,0
14.08.2018 22:00:00 16,6 15,6 15,8 19,1 6 3 16 9 W 1023,2 1,7 0,0
14.08.2018 21:00:00 17,6 16,5 17,4 19,1 13 7 21 11 NW 1022,5 3,7 0,0
14.08.2018 20:00:00 18,5 16,8 18,7 19,0 14 8 21 11 WNW 1022,3 8 0,0
14.08.2018 19:00:00 19,0 17,1 19,6 18,9 12 7 22 12 WNW 1022,1 22 0,0
14.08.2018 18:00:00 20,0 16,8 21,1 18,9 18 10 26 14 NW 1022,3 29 0,0
14.08.2018 17:00:00 20,4 17,0 20,4 18,8 14 8 21 11 NW 1022,3 39 0,0
14.08.2018 16:00:00 19,3 17,4 20,0 18,7 17 9 26 14 NW 1022,3 27 0,0
14.08.2018 15:00:00 20,0 18,0 20,2 18,6 14 8 24 13 WNW 1022,0 38 0,0
14.08.2018 14:00:00 19,1 18,3 19,6 18,5 16 9 26 14 NW 1021,7 7 0,0
14.08.2018 13:00:00 19,8 17,8 20,5 18,4 13 7 22 12 WNW 1021,4 10 0,0
14.08.2018 12:00:00 18,8 17,8 18,2 18,4 10 6 21 11 WNW 1021,3 26 0,0
14.08.2018 11:00:00 17,8 17,3 17,2 18,4 10 6 16 9 W 1020,8 3,1 0,2
14.08.2018 10:00:00 16,8 16,2 16,5 18,5 11 6 16 9 SW 1020,5 3,8 0,2
14.08.2018 09:00:00 16,3 15,5 16,0 18,5 7 4 11 6 W 1020,1 3,7 0,2
14.08.2018 08:00:00 16,1 14,6 15,5 18,6 6 3 9 5 WSW 1019,8 13 0,0
14.08.2018 07:00:00 15,6 14,0 15,0 18,7 8 4 18 10 WNW 1019,2 27 0,0
14.08.2018 06:00:00 16,0 14,2 15,6 18,7 13 7 21 11 WNW 1018,7 30 0,0
14.08.2018 05:00:00 15,7 14,6 14,6 18,8 8 4 9 5 W 1018,5 21 0,0
14.08.2018 04:00:00 15,7 14,6 15,4 18,9 6 4 16 9 WNW 1018,3 22 0,0
14.08.2018 03:00:00 16,0 15,2 15,8 18,9 11 6 22 12 NW 1018,1 19 0,0
14.08.2018 02:00:00 15,9 14,8 15,7 19,0 8 4 15 8 WNW 1017,9 19 0,0
14.08.2018 01:00:00 15,9 14,6 15,3 19,1 6 4 16 9 W 1017,4 22 0,0
14.08.2018 00:00:00 16,3 14,8 15,9 19,1 11 6 16 9 WNW 1017,0 24 0,0
13.08.2018 23:00:00 16,4 15,1 15,3 19,2 10 5 15 8 WNW 1016,6 20 0,0
13.08.2018 22:00:00 16,4 14,6 15,8 19,2 11 6 18 10 WNW 1016,1 25 0,0
13.08.2018 21:00:00 16,8 13,7 16,5 19,1 14 8 28 15 NW 1015,4 35 0,0
13.08.2018 20:00:00 18,1 13,8 18,2 19,1 16 9 28 15 WNW 1014,5 28 0,0
13.08.2018 19:00:00 18,6 13,7 20,0 18,9 19 11 31 17 WNW 1014,2 32 0,0
13.08.2018 18:00:00 20,5 13,9 21,9 18,8 18 10 29 16 NNW 1013,9 41 0,0
13.08.2018 17:00:00 21,3 13,2 21,9 18,6 19 10 28 15 NNW 1013,2 23 0,0
13.08.2018 16:00:00 19,2 14,2 21,0 18,5 16 8 28 15 NNW 1013,1 40 0,0
13.08.2018 15:00:00 19,7 14,5 21,1 18,4 21 11 31 17 NW 1012,8 38 0,0
13.08.2018 14:00:00 19,6 15,0 18,4 18,3 14 8 31 17 NW 1012,3 38 0,0
13.08.2018 13:00:00 19,7 16,2 19,5 18,2 17 9 28 15 NW 1012,0 29 0,0
13.08.2018 12:00:00 19,1 16,0 17,1 18,2 15 8 22 12 W 1011,7 27 0,2
13.08.2018 11:00:00 17,9 15,9 17,3 18,1 12 6 21 11 W 1011,3 31 0,0
13.08.2018 10:00:00 17,2 16,1 16,5 18,2 10 6 16 9 W 1011,1 32 0,0
13.08.2018 09:00:00 16,2 15,9 15,9 18,2 10 5 16 9 WSW 1010,6 29 0,0
13.08.2018 08:00:00 15,9 15,6 15,6 18,2 8 5 13 7 WSW 1009,9 13 0,0
13.08.2018 07:00:00 15,7 15,4 15,3 18,2 8 5 11 6 WSW 1009,4 7 0,0
13.08.2018 06:00:00 15,6 15,3 15,2 18,3 3 1 15 8 W 1009,3 14 0,0
13.08.2018 05:00:00 15,6 15,1 15,2 18,4 10 6 16 9 SW 1009,3 9 0,2
13.08.2018 04:00:00 15,4 14,8 15,0 18,4 11 6 28 15 WSW 1009,3 31 0,0
13.08.2018 03:00:00 15,4 14,9 15,0 18,5 16 8 26 14 W 1009,3 6 1,6
13.08.2018 02:00:00 15,5 14,9 15,1 18,6 14 7 22 12 WSW 1009,3 18 0,0
13.08.2018 01:00:00 15,6 15,0 15,0 18,6 16 9 31 17 WSW 1009,2 20 0,0
13.08.2018 00:00:00 15,7 15,2 15,2 18,7 23 12 37 20 WSW 1009,2 7 0,2
12.08.2018 23:00:00 15,4 14,6 15,1 18,7 16 9 31 17 SW 1009,3 1,9 1,4
12.08.2018 22:00:00 16,5 14,5 16,3 18,7 16 9 24 13 SW 1009,1 36 0,0
12.08.2018 21:00:00 17,0 14,8 17,0 18,7 15 8 34 18 W 1009,0 41 0,0
12.08.2018 20:00:00 17,4 13,9 17,7 18,7 24 13 34 18 SW 1008,7 50 0,0
12.08.2018 19:00:00 17,7 14,2 17,7 18,6 26 14 39 21 W 1009,0 14 0,0
12.08.2018 18:00:00 19,3 13,9 19,9 18,6 24 13 35 19 SW 1009,0 34 0,0
12.08.2018 17:00:00 19,5 14,5 19,3 18,6 26 14 39 21 SW 1009,0 22 0,0
12.08.2018 16:00:00 19,0 15,3 19,7 18,4 24 13 39 21 SW 1009,4 20 0,0
12.08.2018 15:00:00 18,7 15,9 20,0 18,3 18 10 31 17 SW 1009,9 35 0,0
12.08.2018 14:00:00 18,8 16,2 19,7 18,2 18 10 26 14 SW 1009,9 42 0,0
12.08.2018 13:00:00 19,0 17,3 19,2 18,2 15 8 21 11 SW 1010,0 43 0,0
12.08.2018 12:00:00 17,8 17,3 17,6 18,2 12 7 26 14 SW 1010,2 5 3,4
12.08.2018 11:00:00 17,8 17,3 17,4 18,3 22 12 35 19 SSW 1010,3 4,4 1,0
12.08.2018 10:00:00 17,5 17,2 17,2 18,2 14 7 41 22 S 1010,3 3,2 9,4
12.08.2018 09:00:00 17,4 16,9 16,9 18,3 26 14 41 22 S 1010,9 3,1 3,8
12.08.2018 08:00:00 17,1 16,5 16,6 18,3 23 12 37 20 SSW 1011,5 2,0 0,4
12.08.2018 07:00:00 17,1 16,1 16,5 18,4 21 11 31 17 S 1011,7 17 1,0
12.08.2018 06:00:00 17,7 15,5 17,3 18,5 17 9 28 15 S 1012,8 19 0,0
12.08.2018 05:00:00 17,5 14,9 17,0 18,5 17 9 35 19 SSW 1013,9 38 0,0
12.08.2018 04:00:00 17,3 14,2 16,7 18,6 21 11 34 18 SSW 1014,4 41 0,0
12.08.2018 03:00:00 17,2 13,7 16,8 18,7 20 11 31 17 S 1015,3 43 0,0
12.08.2018 02:00:00 17,2 13,5 16,7 18,8 18 10 31 17 S 1016,3 45 0,0
12.08.2018 01:00:00 17,1 13,6 16,8 18,8 21 11 39 21 S 1016,9 42 0,0
12.08.2018 00:00:00 17,3 13,6 16,7 18,9 20 11 31 17 S 1017,8 42 0,0
11.08.2018 23:00:00 17,2 13,1 16,4 19,0 19 10 28 15 S 1018,7 42 0,0
11.08.2018 22:00:00 17,6 12,1 16,7 19,0 21 11 37 20 S 1019,0 51 0,0

tt = temperature
td = dewpoint
tt 5cm = temperature 5cm
tt -20cm = temperature -20cm
ff = wind speed
fx = gusts
dd = wind direction
ppp = reduced air pressure
vv = visibility
rr = precipitation

Next stations